DECAYED
Showing default

FLOCK 4Q 18, 58305 (Decayed)

Orbit data source: Space-Track

FLOCK 4Q 18, 58305 was a payload satellite owned by Planet (US) in LEO that was launched on Sat, 11 Nov 2023 UTC via an FALCON 9 launch vehicle from the Air Force Western Test Range (AFWTR). Payload-class satellites include a variety of spacecraft equipped with specific instruments for various scientific and technological missions. These include communications satellites like Starlink; space stations such as the ISS; scientific satellites like the Hubble; Earth observation satellites from companies like Planet Labs, Umbra, and HawkEye 360; GPS; miniature CubeSats for education and research; and military/defense satellites.

Not visible in the next 10 days
Identifier
58305, 2023-174BB
Orbit
Decayed
Country
Flag of USUS
Related business
Manufacturer
Planet
Mission
Decayed Commercial Imaging
Bus & Motor
CUBESAT 3U, Unknown motor
Mass
5.7 kg wet, 5.7 kg dry
Launch date (UTC)
2023-11-11 (2 years ago)
Launch vehicle
FALCON 9
Launch site
Air Force Western Test Range (AFWTR)
Object type
Payload
Rocket body
Debris
Shape & HBR
Box + 2 Pan, 1.0 m
Radar Cross Section
0.072 m², Medium (>0.1 m² and < 1m²)

Expand to show TLE details & history
Last TLE update: 9 months ago

TLE from 9 months ago
0 FLOCK 4Q 18
1 58305U 23174BB  25005.19213605  .06590350  24518-5  24082-2 0  9998
2 58305  97.4008  90.9968 0007726 278.1275  81.9139 16.24667308 64921
Epoch: 2025-01-05T04:36Z
TLE epoch observation values (Epoch: 2025-01-05T04:36:40.554Z)
Latitude
-0.00011°
Longitude
-83.2037°
Altitude
209.429 km
Speed
7.781 km/s
True Right ascension
06h 03m 59s
True Declination
0° 00' 00"
Sunlit
Object was in full shadow at epoch
Visualization orbit readout
Latitude
Unknown
Longitude
Unknown
Altitude
Unknown
Speed
Unknown
Apparent Right ascension
Unknown
Apparent Declination
Unknown
Sunlit
N/A
Visualization observer readout
Local Sidereal Time
08:27:46
Azimuth
Unknown
Elevation
Unknown
Doppler factor
Unknown
Orbital elements
Apogee altitude
208.823 km
Perigee altitude
198.652 km
Semi-major axis
6,581.875 km
Eccentricity
0.00077
Inclination
97.4008°
RAAN
90.9968°
Arg. of periapsis
278.1275°
True anomaly
82.00157°
Mean anomaly
81.9139°
Eccentric anomaly
81.95773°
Mean motion
4.06461 °/min
Orbital period
88.57 mins
BSTAR
0.0024082
Loading maneuver chart data...
Computing Atmospheric mass density...

Documentation

Showing up to 5 results
|